FW5311 Weather Reports


time (UTC)temp
C
wind
direction
speed
KPH
gust
KPH
rain 1hr
cm
rain 24hr
cm
rain mn
cm
humidity
%
barometer
mb
20260502204547 18 185 16.1 27.4 0.00 0.00 0.00 42 1007.0
20260502203040 18 173 11.3 24.1 0.00 0.00 0.00 42 1007.1
20260502201551 18 150 4.8 14.5 0.00 0.00 0.00 43 1007.4
20260502200045 17 176 9.7 19.3 0.00 0.00 0.00 44 1007.6
20260502194539 16 171 8.0 24.1 0.00 0.00 0.00 48 1007.7
20260502193039 16 171 16.1 24.1 0.00 0.00 0.00 48 1007.8
20260502191551 15 150 11.3 17.7 0.00 0.00 0.00 49 1007.8
20260502190057 14 146 11.3 24.1 0.00 0.00 0.00 50 1007.9
20260502184551 13 158 19.3 25.7 0.00 0.00 0.00 50 1008.0
20260502183100 14 167 6.4 11.3 0.00 0.00 0.00 51 1008.0
20260502181544 13 200 3.2 14.5 0.00 0.00 0.00 50 1008.3
20260502163049 13 213 3.2 14.5 0.00 0.00 0.00 45 1008.6
20260502161544 13 208 6.4 14.5 0.00 0.00 0.00 46 1008.8
20260502151549 11 138 9.7 20.9 0.00 0.00 0.00 52 1008.8
20260502123039 4 153 12.9 19.3 0.00 0.00 0.00 61 1010.3
20260502121551 3 134 4.8 12.9 0.00 0.00 0.00 62 1010.4
20260502114548 3 130 8.0 17.7 0.00 0.00 0.00 62 1010.9
20260502113044 3 132 11.3 17.7 0.00 0.00 0.00 61 1011.1
20260502111539 3 147 9.7 16.1 0.00 0.00 0.00 62 1011.2
20260502110044 2 134 11.3 16.1 0.00 0.00 0.00 63 1011.4
20260502104542 2 129 9.7 16.1 0.00 0.00 0.00 63 1011.6
20260502103046 2 123 11.3 16.1 0.00 0.00 0.00 62 1011.9
20260502101550 2 112 9.7 17.7 0.00 0.00 0.00 62 1012.1
20260502070043 2 152 3.2 9.7 0.00 0.00 0.00 59 1015.1
20260502064541 2 124 4.8 9.7 0.00 0.00 0.00 58 1015.3
20260502063045 3 132 4.8 9.7 0.00 0.00 0.00 57 1015.5
20260502061543 3 118 6.4 9.7 0.00 0.00 0.00 56 1015.5
20260502060042 3 117 8.0 11.3 0.00 0.00 0.00 55 1015.6
20260502054543 3 124 6.4 9.7 0.00 0.00 0.00 55 1015.7
20260502053059 3 116 4.8 9.7 0.00 0.00 0.00 53 1016.0
20260502051548 3 119 8.0 11.3 0.00 0.00 0.00 53 1016.2
20260502050047 4 122 3.2 6.4 0.00 0.00 0.00 51 1016.3
20260502044541 4 122 3.2 6.4 0.00 0.00 0.00 50 1016.3
20260502043040 3 129 1.6 6.4 0.00 0.00 0.00 51 1016.5
20260502041602 5 111 1.6 4.8 0.00 0.00 0.00 47 1016.4
20260502040045 6 111 1.6 6.4 0.00 0.00 0.00 45 1016.5
20260502034545 6 109 3.2 4.8 0.00 0.00 0.00 45 1016.6
20260502033058 6 109 1.6 4.8 0.00 0.00 0.00 44 1016.5
20260502031539 6 109 3.2 4.8 0.00 0.00 0.00 43 1016.5
20260502030048 7 109 1.6 4.8 0.00 0.00 0.00 42 1016.5
20260502024540 8 101 1.6 4.8 0.00 0.00 0.00 42 1016.4
20260502023051 8 0 1.6 6.4 0.00 0.00 0.00 42 1016.5
20260502021542 9 94 3.2 6.4 0.00 0.00 0.00 40 1016.6
20260502020043 9 105 3.2 6.4 0.00 0.00 0.00 41 1016.5
20260502014542 10 96 3.2 6.4 0.00 0.00 0.00 41 1016.6
20260502013041 10 86 0.0 3.2 0.00 0.00 0.00 40 1016.8
20260502011546 10 0 0.0 4.8 0.00 0.00 0.00 40 1016.8
20260502010043 11 86 1.6 6.4 0.00 0.00 0.00 37 1017.0
20260502004541 12 72 1.6 6.4 0.00 0.00 0.00 36 1017.1
20260502003039 12 35 4.8 6.4 0.00 0.00 0.00 35 1017.0
20260502001542 12 11 3.2 8.0 0.00 0.00 0.00 35 1017.2
20260502000048 12 336 3.2 9.7 0.00 0.00 0.00 34 1017.4
20260501234544 12 325 1.6 11.3 0.00 0.00 0.00 33 1017.6
20260501233045 12 307 1.6 9.7 0.00 0.00 0.00 34 1017.6
20260501231556 12 214 3.2 14.5 0.00 0.00 0.00 34 1017.6
20260501230041 12 44 3.2 16.1 0.00 0.00 0.00 33 1018.0
20260501224544 12 244 4.8 11.3 0.00 0.00 0.00 33 1017.8
20260501223107 12 263 3.2 16.1 0.00 0.00 0.00 34 1017.9
20260501221542 12 355 1.6 8.0 0.00 0.00 0.00 33 1018.1
20260501220045 12 297 6.4 11.3 0.00 0.00 0.00 33 1018.1
20260501214542 12 62 3.2 12.9 0.00 0.00 0.00 33 1018.2
20260501213037 12 284 6.4 16.1 0.00 0.00 0.00 34 1018.4
20260501211539 12 346 1.6 11.3 0.00 0.00 0.00 34 1018.6
20260501210044 12 306 9.7 17.7 0.00 0.00 0.00 34 1018.7